Location: Gradaro
(45.0833°N, 10.8833°E)
Time: 23:41:43
(UTC+00:00)

Cosmos 2263 Rocket - Pass Details

Date: 23 April 2021
Orbit: 824 x 848 km, 71.0° (Epoch: 15 May)

Event Time Altitude Azimuth Distance (km) Brightness Sun altitude
Exits shadow 21:58:58 48° 269° (W) 1,066 2.7 -29.6°
Maximum altitude 21:59:49 53° 301° (WNW) 1,010 2.7 -29.6°
Drops below altitude 10° 22:05:16 10° 18° (NNE) 2,437 5.2 -30.0°
Sets 22:07:47 0° 23° (NNE) 3,377 6.0 -30.1°
